Flag for Germany Weather past 2 weeks in Wismar, Mecklenburg-Western Pomerania, Germany

Now
49 °F

Low clouds.


Feels Like: 47 °F
Forecast: 43 / 49 °F
Wind: 5 mph from North

Location: Schwerin

Current Time: Apr 26, 2015 at 8:00:02 PM

Latest Report: Apr 26, 2015 at 7:00 PM


Visibility: 8 mi

Pressure: 29.70 "Hg

Humidity: 95%

Dew point: 47 °F

Location of WismarLocation

Historic Weather in Wismar — Graph

°F

Wismar temperature yesterday

Maximum temperature yesterday: 62 °F (at 1:00 PM)
Minimum temperature yesterday: 48 °F (at 1:00 AM)
Average temperature yesterday: 54 °F

Past Weeks' High & Low Weather Summary

 TemperatureHumidityPressure
High69 °F (Apr 15, 4:00 PM)100% (Apr 24, 4:00 AM)30.38 "Hg (Apr 24, 4:00 AM)
Low33 °F (Apr 14, 7:00 AM)29% (Apr 15, 4:00 PM)29.68 "Hg (Apr 26, 4:00 PM)
Average49 °F70%30.10 "Hg
* Reported Apr 11 7:00 PM — Apr 26 7:00 PM, Wismar, Weather by CustomWeather, © 2015

Note: Actual official high and low records may vary slightly from our data, if they occured in-between our weather recording intervals... More about our weather records

Advertising

Wismar weather history for previous 24 hours

 ConditionsComfort  
Time TempWeatherWind HumidityBarometerVisibility
7:00 PM
Sun, Apr 26
49 °FLow clouds.5 mph95%29.70 "Hg8 mi
6:00 PM52 °FLight rain. Low clouds.6 mph93%29.69 "Hg2 mi
4:00 PM58 °FOvercast.3 mph78%29.68 "Hg9 mi
3:00 PM57 °FOvercast.5 mph75%29.70 "Hg11 mi
2:00 PM56 °FOvercast.5 mph74%29.71 "Hg14 mi
1:00 PM56 °FOvercast.2 mph78%29.71 "Hg9 mi
12:00 PM53 °FLow clouds.5 mph90%29.73 "Hg4 mi
10:00 AM52 °FLow clouds.5 mph95%29.74 "Hg2 mi
9:00 AM51 °FFog.5 mph95%29.74 "Hg2 mi
8:00 AM51 °FFog.3 mph94%29.74 "Hg2 mi
7:00 AM49 °FFog.2 mph97%29.73 "Hg2 mi
6:00 AM49 °FFog.2 mph99%29.73 "Hg1 mi
4:00 AM52 °FFog.5 mph93%29.72 "Hg3 mi
3:00 AM52 °FFog.5 mph97%29.72 "Hg2 mi
2:00 AM52 °FLow clouds.5 mph97%29.71 "Hg1 mi
1:00 AM52 °FLight rain. Overcast.3 mph98%29.72 "Hg1 mi
12:00 AM52 °FOvercast.5 mph97%29.72 "Hg1 mi
10:00 PM
Sat, Apr 25
53 °FOvercast.3 mph97%29.72 "Hg1 mi
9:00 PM53 °FLight rain. Overcast.3 mph93%29.72 "Hg3 mi
8:00 PM53 °FLight rain. Overcast.5 mph92%29.71 "Hg3 mi
Weather by CustomWeather, © 2015

See weather overviewHow to use our weather pages